Theta_e
299 299 300 300 300 300 300 300 301 301 301 301 301 302 302 302 302 302 303 303 303 304 303 303 306 306 306 306 310 315 319 322 325 323 324 321 319 320 321 321 321 320 320 320 318
299 299 299 300 300 300 300 300 301 301 301 301 301 301 301 302 302 303 303 303 302 303 303 305 307 307 304 305 308 317 317 321 320 318 317 312 315 316 313 312 313 317 319 319 317
300 300 300 300 300 300 301 301 300 300 301 300 300 300 300 301 301 303 304 302 302 302 302 306 307 306 304 306 310 313 319 317 316 313 312 310 312 313 311 310 313 319 321 316 315
301 302 302 304 305 304 303 302 301 301 301 301 300 300 300 300 300 305 303 302 302 302 302 308 307 306 308 309 311 315 315 316 315 313 311 310 310 308 311 316 317 317 318 317 315
304 306 307 310 313 305 303 303 302 301 301 301 300 300 300 299 301 302 302 302 302 302 306 308 309 310 312 311 312 313 312 313 313 311 309 309 307 309 310 316 316 315 315 315 317
310 311 312 314 314 312 306 305 302 302 301 301 300 299 298 297 301 301 302 302 302 303 307 308 310 310 308 310 311 310 311 310 310 308 307 306 306 307 313 316 317 313 314 315 315
314 314 314 315 315 315 308 309 310 305 301 301 300 299 298 301 301 301 301 301 301 303 306 309 308 309 309 309 308 306 308 309 307 306 305 304 307 303 311 312 316 314 311 314 314
315 315 315 315 315 315 314 313 314 309 302 300 299 298 298 300 301 300 300 300 301 302 305 306 307 307 308 307 306 308 306 310 309 304 305 307 309 310 309 309 310 312 311 311 312
314 314 315 315 315 315 315 314 314 306 301 299 298 298 299 300 300 300 300 300 301 301 302 304 305 306 305 306 306 305 308 307 309 303 303 305 309 310 307 305 305 308 310 312 311
314 314 314 314 314 315 315 314 310 307 301 299 298 298 300 301 300 300 300 299 301 301 301 303 303 302 300 304 309 307 305 306 308 305 302 301 303 306 307 304 304 306 306 306 310
312 314 314 314 314 314 315 314 312 309 304 304 305 304 302 301 300 300 299 299 301 301 299 301 299 300 304 303 304 304 306 305 303 303 303 301 302 305 305 302 300 302 304 305 307
309 310 312 314 314 314 313 313 313 311 304 313 313 308 303 300 300 299 299 299 300 298 298 298 298 299 300 300 302 303 302 303 302 301 301 300 300 301 302 301 303 303 303 304 305
299 303 308 313 313 313 313 312 313 311 301 308 308 304 303 300 299 299 299 300 298 297 297 296 299 298 298 299 300 299 300 301 302 302 300 300 302 302 303 302 303 304 304 305 305
295 296 296 299 306 312 313 311 313 311 297 305 300 299 299 299 298 299 299 300 298 297 296 297 298 300 299 299 299 299 298 301 302 302 300 301 301 302 303 303 303 304 306 307 306
295 295 295 295 297 306 311 312 313 310 316 305 298 299 298 299 298 298 298 299 298 297 298 299 297 298 299 299 298 299 300 301 301 300 300 301 301 300 302 304 304 305 305 306 307
295 295 295 294 294 299 307 307 310 311 314 303 297 297 297 298 298 298 298 299 299 298 298 298 297 297 298 297 298 298 300 301 299 298 297 299 300 304 302 304 306 307 307 308 308
294 295 295 294 293 297 301 305 310 313 305 303 297 297 297 297 297 298 297 298 298 295 297 298 297 297 297 297 298 298 298 299 297 295 301 299 299 302 302 303 304 305 306 308 308
294 294 293 292 292 292 297 305 309 302 306 302 298 297 297 297 297 298 297 296 296 298 295 297 298 296 295 297 299 298 298 300 298 302 303 300 302 303 302 302 304 305 306 308 307
292 293 294 293 293 292 295 302 303 305 305 304 298 298 293 298 298 297 297 297 297 297 301 297 299 296 296 296 297 298 300 300 301 294 300 303 302 301 303 303 302 302 303 305 306
291 291 292 292 296 294 297 301 301 303 306 300 306 301 301 295 298 298 298 298 299 297 297 299 301 296 295 296 296 297 297 300 297 297 300 302 302 303 304 306 304 302 301 305 305
290 290 291 292 294 295 296 297 297 302 303 308 305 307 304 298 299 298 302 300 298 297 298 297 301 296 295 294 297 296 297 296 297 300 301 303 303 301 302 302 305 302 302 304 305
290 290 291 291 291 293 298 298 299 299 302 302 303 304 307 307 301 299 301 300 299 299 300 301 303 297 296 294 294 295 297 298 299 298 301 304 304 304 302 302 302 304 306 307 307
290 290 289 291 290 287 291 292 293 296 300 299 302 303 304 304 308 308 306 303 301 302 305 301 304 302 302 297 292 292 295 298 299 299 299 302 304 300 301 304 304 304 306 307 307
289 289 290 290 292 291 290 291 293 292 294 298 301 300 301 302 305 306 305 305 299 300 305 304 304 306 309 305 298 297 293 297 299 299 303 303 304 305 304 303 303 304 304 305 307
288 287 289 288 288 287 288 291 292 292 293 293 297 295 294 300 302 303 304 305 300 300 303 306 307 306 306 304 298 301 297 296 299 301 300 304 302 302 301 303 302 302 303 304 306
288 288 288 288 288 289 289 290 290 291 291 290 291 290 292 294 294 299 295 300 303 296 300 300 306 305 309 307 308 306 301 300 299 299 300 300 300 299 299 300 300 301 301 299 299
289 288 288 288 283 285 285 288 290 291 291 291 291 290 290 292 291 292 293 295 296 297 300 300 303 306 308 306 306 304 305 303 299 297 299 299 300 300 300 300 297 295 294 295 296
Wind_Speed
8 9 10 11 12 12 13 13 13 13 14 15 15 15 16 17 18 20 21 19 13 13 10 9 9 9 9 8 12 7 2 6 6 8 6 2 4 8 8 9 15 15 11 9 15
9 10 11 12 13 14 14 16 15 15 16 15 16 16 15 17 19 22 21 18 14 14 12 7 7 6 4 6 9 6 5 7 5 4 4 4 5 5 4 7 10 14 18 14 19
11 12 12 12 13 15 17 17 17 16 16 17 16 17 15 15 19 6 5 11 14 14 13 8 7 7 5 7 8 7 6 4 3 5 5 4 4 4 5 6 12 26 29 21 26
12 12 14 15 17 17 16 17 19 18 17 16 16 17 15 12 6 3 3 1 6 10 11 8 10 6 4 6 12 3 11 10 5 6 4 4 5 5 14 13 6 19 23 25 29
14 14 15 17 18 19 18 17 16 18 18 17 16 15 15 9 13 15 11 10 9 9 12 11 12 5 4 5 5 6 6 10 12 11 12 11 12 12 17 23 25 21 18 28 34
16 16 17 18 21 23 19 19 19 18 18 17 16 14 12 6 12 12 10 10 10 10 13 15 8 11 6 5 5 6 5 5 9 16 10 7 5 3 21 28 31 26 26 28 35
16 17 19 20 21 23 21 21 21 21 17 16 16 14 15 24 17 13 11 10 10 11 13 14 13 8 2 4 5 4 5 7 8 8 6 6 9 14 36 25 27 35 29 31 36
19 19 20 21 22 22 22 23 24 20 16 13 12 12 11 14 15 14 16 14 11 12 13 12 11 8 5 4 3 3 1 3 1 5 3 8 11 6 6 20 36 33 36 37 37
23 23 22 22 24 23 22 24 23 17 12 10 9 8 9 11 11 14 14 10 9 8 10 9 7 6 2 2 4 2 5 6 7 8 3 6 9 3 7 8 16 23 35 37 42
25 23 23 23 24 24 22 23 19 14 9 6 8 5 13 8 8 8 11 10 6 6 6 6 5 2 1 4 9 6 6 5 6 5 4 5 18 14 18 14 23 28 26 30 41
27 26 24 23 22 22 22 20 8 6 7 10 14 18 16 13 9 9 11 11 7 4 5 3 4 9 21 6 2 1 4 5 3 3 5 9 14 25 12 13 18 30 34 38 40
30 30 29 22 20 21 16 11 9 12 15 23 28 34 32 15 8 16 15 12 8 7 5 1 10 11 1 6 7 6 5 8 6 2 5 9 17 21 14 12 29 31 34 41 41
29 31 32 30 21 24 12 14 15 17 6 17 22 18 22 23 11 16 22 12 5 8 9 9 5 3 9 5 6 6 8 4 6 2 5 7 13 10 5 9 23 30 37 36 38
27 27 28 33 21 12 16 12 18 17 3 7 7 7 11 11 7 16 24 10 4 12 7 8 5 6 5 6 8 6 6 4 2 2 5 2 9 8 7 11 7 18 25 28 33
28 28 27 22 19 14 17 18 18 9 6 2 4 6 10 8 7 6 18 6 7 8 7 7 8 5 5 7 9 5 2 3 2 1 5 2 3 7 3 9 10 9 12 20 29
28 27 26 27 18 12 17 14 15 1 11 4 4 4 3 3 2 6 6 5 3 4 2 4 1 4 6 2 2 7 6 6 4 2 3 8 7 15 6 7 3 3 6 6 8
30 28 27 27 29 10 6 8 4 8 3 6 5 6 4 6 5 6 6 7 7 5 7 2 5 3 4 5 3 3 7 1 3 2 7 0 4 9 10 12 6 7 13 13 9
31 29 31 28 29 16 12 7 13 11 15 2 5 4 8 9 5 8 6 4 8 2 3 7 5 11 7 7 8 7 7 6 8 5 4 3 8 7 9 8 12 14 22 21 10
36 36 26 28 15 11 12 13 12 18 8 7 2 4 4 5 6 5 10 6 9 13 10 6 6 1 2 2 4 7 6 2 6 3 3 5 8 9 14 12 6 10 8 9 7
35 33 26 18 13 12 10 27 14 9 2 3 14 11 11 6 8 9 12 5 6 16 1 6 1 1 1 0 2 4 4 3 2 3 5 5 6 7 8 8 5 8 8 12 9
30 14 16 14 18 12 11 15 8 35 26 2 9 5 6 5 7 5 8 5 8 4 4 3 3 1 2 8 11 4 4 1 3 4 5 2 6 7 9 7 8 7 7 10 9
15 4 13 27 10 7 6 7 8 18 20 7 7 22 12 14 6 5 9 7 10 9 10 6 3 5 8 2 2 2 5 7 5 6 4 2 9 3 6 6 5 3 5 5 8
20 16 19 13 3 7 8 12 14 18 17 6 7 6 14 23 13 15 11 4 17 10 8 7 2 1 2 1 3 4 6 5 2 2 8 7 7 1 3 1 3 5 8 9 7
10 4 6 14 10 5 12 18 8 20 13 14 11 5 14 19 11 16 5 3 4 6 16 12 7 11 11 7 4 5 6 8 3 2 12 11 11 1 2 3 3 2 8 15 9
4 4 4 3 8 7 5 9 17 10 6 20 5 13 7 5 9 12 8 10 2 4 3 5 7 14 21 10 3 5 5 10 13 24 8 25 16 7 8 0 1 3 13 11 10
7 4 4 10 14 6 5 4 14 11 5 11 7 18 13 7 9 5 11 7 7 3 8 3 5 8 13 20 23 16 12 12 22 25 19 29 21 9 7 10 6 13 18 19 20
16 20 17 13 3 2 4 5 8 6 5 4 8 13 17 12 26 28 21 19 17 7 2 4 6 9 20 15 12 11 22 22 6 8 14 16 22 6 11 7 12 19 20 22 27
Wind_Direction
345 338 334 331 326 319 311 306 307 306 304 302 305 303 300 295 292 286 275 273 266 253 265 272 267 250 228 214 198 190 170 234 228 171 249 226 218 233 221 203 195 200 215 216 192
352 345 338 332 325 318 313 312 310 307 305 303 305 305 302 301 301 287 278 264 251 246 275 277 257 232 199 202 199 171 183 236 203 199 238 285 247 258 211 203 214 212 217 219 197
354 350 347 338 332 323 317 312 307 305 304 302 302 300 298 305 309 282 311 249 233 244 272 246 219 205 230 196 203 194 218 209 252 238 259 262 283 244 214 238 218 216 217 208 197
3 354 351 349 343 334 322 313 308 304 301 298 297 295 291 298 284 277 292 271 230 236 238 219 197 181 244 211 198 202 238 237 232 242 250 230 282 262 221 236 248 238 242 215 204
3 357 352 349 349 342 334 323 309 302 298 296 293 288 286 270 257 269 267 272 259 239 212 204 194 188 238 244 202 206 222 230 239 243 245 258 246 247 258 255 252 258 239 227 217
356 353 350 347 346 345 338 334 322 307 295 291 286 278 266 244 265 262 262 263 255 225 211 202 224 202 268 253 236 315 260 252 244 244 239 216 248 218 258 257 251 250 238 228 226
344 343 342 341 341 343 334 331 327 312 292 280 275 271 263 263 268 263 258 253 248 234 219 219 225 222 221 281 294 311 319 303 237 222 234 204 283 228 252 243 241 234 228 230 229
335 335 334 333 332 335 334 330 328 316 292 278 262 259 255 263 258 257 254 254 248 236 228 226 231 234 231 295 307 302 338 292 323 137 234 161 270 238 236 223 234 240 234 232 231
323 327 327 328 327 327 329 329 326 317 302 273 261 248 261 266 257 249 245 237 236 232 217 220 208 217 184 145 323 240 247 216 306 190 143 197 266 273 237 219 240 245 242 240 241
313 314 315 319 323 323 324 327 320 308 291 270 244 275 244 244 243 233 224 220 208 194 166 175 188 165 74 153 225 203 228 242 226 200 195 238 261 267 267 270 269 268 257 249 243
308 307 309 310 318 323 324 334 324 298 273 249 277 252 271 242 222 223 206 196 187 183 186 191 160 202 217 221 295 287 225 249 274 208 205 233 250 269 254 261 260 259 260 254 247
300 304 305 302 314 323 323 325 317 299 297 276 265 256 247 235 224 209 191 175 172 197 138 84 236 223 196 202 227 259 272 264 269 178 197 274 259 263 256 235 244 244 246 248 251
305 297 291 292 304 313 306 316 321 325 258 284 244 242 238 224 225 211 191 188 168 163 198 186 201 131 189 195 188 222 221 236 246 297 228 304 278 263 256 241 248 249 246 249 249
328 324 317 297 304 285 309 312 322 334 352 253 218 225 187 171 234 210 194 175 198 194 175 234 231 177 166 203 168 245 208 212 242 24 255 7 286 284 270 261 265 265 253 253 250
328 329 330 340 310 304 297 300 313 328 284 234 185 172 175 186 141 182 189 191 180 178 136 235 172 174 175 195 164 225 92 123 83 133 345 197 280 257 251 280 259 265 259 255 249
323 325 325 318 309 278 289 286 304 318 246 286 132 167 140 226 207 135 171 185 158 137 219 243 242 191 200 98 132 143 80 47 55 82 293 184 179 266 215 228 256 274 277 308 257
315 317 314 309 303 284 275 279 225 222 337 258 201 170 200 191 199 175 174 183 168 123 218 171 210 179 153 97 28 110 106 315 347 4 233 74 195 273 287 264 242 269 264 314 287
310 306 300 311 312 292 251 221 229 223 222 99 153 137 188 159 223 179 154 208 245 109 120 162 282 165 181 195 173 195 170 164 199 201 248 131 237 250 243 285 275 274 276 282 264
323 312 305 326 298 229 202 220 216 234 190 163 85 181 273 231 174 155 193 210 206 182 184 155 266 94 44 152 141 181 213 174 103 63 36 222 280 287 262 266 268 265 283 266 262
326 325 318 316 309 205 215 227 228 247 325 121 219 192 203 211 178 192 172 203 224 195 143 212 85 20 118 104 71 155 170 97 347 170 236 264 266 233 289 267 284 260 258 264 254
334 329 323 302 307 210 231 233 262 265 283 277 253 276 237 206 205 213 212 223 192 152 114 131 130 9 71 211 178 153 190 175 138 172 178 254 256 217 239 247 260 281 288 276 274
339 304 330 304 320 292 266 258 259 284 290 290 275 263 276 264 212 233 225 237 154 146 161 196 122 183 198 230 332 272 209 167 145 225 243 169 251 193 224 275 194 275 13 353 291
320 310 324 313 266 292 288 282 296 317 273 282 265 268 269 260 271 235 228 257 171 171 172 179 223 276 264 358 4 209 198 225 143 94 207 156 258 43 223 156 167 136 71 31 357
321 305 324 319 297 273 299 299 322 329 304 333 277 273 262 272 267 256 266 275 266 217 207 168 164 185 225 233 132 188 206 198 160 143 236 228 229 73 125 245 313 66 53 357 341
292 280 287 300 308 300 328 309 305 330 8 357 301 6 5 305 272 271 284 236 276 299 273 162 213 205 230 211 202 194 172 184 206 234 203 250 241 237 269 256 3 323 321 339 344
237 220 252 264 275 280 275 254 298 311 346 319 356 350 349 334 313 322 348 316 232 7 179 187 244 185 236 233 241 234 218 219 208 227 247 266 275 272 311 306 333 321 352 5 9
312 273 229 252 219 196 241 237 268 280 278 297 339 339 330 335 323 304 289 273 272 288 287 197 219 211 238 236 234 238 222 221 189 211 212 238 251 285 274 331 23 15 20 13 350